DT_LEITURA;HR_LEITURA;MED-PressaoAtm[hPa];VAL-TempExt[oC];VAL-UmidExt[%UR];VAL-TempInt[oC];VAL-UmidInt[%UR];Dir-Vento[grau];Vel-Vento[m/s];Precipitação[mm/h]
04/09/2026;00:04:00;1009,6;;;19,1;78;63;1,3;0,0
04/09/2026;00:09:00;1009,5;;;19,1;78;47;1,8;0,0
04/09/2026;00:14:00;1009,5;;;19,0;78;32;2,1;0,0
04/09/2026;00:19:00;1009,5;;;19,1;78;38;1,7;0,0
04/09/2026;00:24:00;1010,0;;;19,1;78;152;2,7;0,0
04/09/2026;00:29:00;1010,5;;;19,2;78;231;4,2;0,0
04/09/2026;00:34:00;1010,7;;;19,2;78;224;3,2;0,0
04/09/2026;00:39:00;1010,8;;;19,3;78;231;5,3;0,0
04/09/2026;00:44:00;1010,9;;;19,4;78;224;6,2;0,0
04/09/2026;00:49:00;1010,9;;;19,3;77;228;5,9;0,0
04/09/2026;00:54:00;1010,9;;;19,3;77;223;5,7;0,0
04/09/2026;00:59:00;1011,0;;;19,2;77;222;6,6;0,0
04/09/2026;01:04:00;1011,2;;;19,0;77;239;5,4;0,0
04/09/2026;01:09:00;1011,3;;;18,9;77;235;5,8;0,0
04/09/2026;01:14:00;1011,4;;;18,8;77;231;5,9;0,0
04/09/2026;01:19:00;1011,3;;;18,7;78;234;6,0;0,0
04/09/2026;01:24:00;1011,3;;;18,5;78;226;6,3;0,0
04/09/2026;01:29:00;1011,3;;;18,5;78;223;6,1;0,0
04/09/2026;01:34:00;1011,3;;;18,4;78;225;5,6;0,0
04/09/2026;01:39:00;1011,4;;;18,4;78;223;6,0;0,0
04/09/2026;01:44:00;1011,4;;;18,4;78;219;5,1;0,0
04/09/2026;01:49:00;1011,4;;;18,4;78;229;5,8;0,0
04/09/2026;01:54:00;1011,4;;;18,3;78;230;5,7;0,0
04/09/2026;01:59:00;1011,5;;;18,3;78;225;5,2;0,0
04/09/2026;02:04:00;1011,6;;;18,2;78;227;6,7;0,0
04/09/2026;02:09:00;1011,5;;;18,2;78;230;5,7;0,0
04/09/2026;02:14:00;1011,5;;;18,2;78;225;6,5;0,0
04/09/2026;02:19:00;1011,5;;;18,1;78;231;6,6;0,0
04/09/2026;02:24:00;1011,6;;;18,1;78;229;7,6;0,0
04/09/2026;02:29:00;1011,6;;;18,0;79;228;7,8;0,0
04/09/2026;02:34:00;1011,7;;;18,0;79;225;8,0;0,0
04/09/2026;02:39:00;1011,9;;;18,0;79;228;7,6;0,0
04/09/2026;02:44:00;1011,9;;;18,0;79;230;7,4;0,0
04/09/2026;02:49:00;1011,8;;;18,0;79;231;7,4;0,0
04/09/2026;02:54:00;1011,8;;;18,0;79;230;6,5;0,0
04/09/2026;02:59:00;1011,8;;;18,0;79;231;7,1;0,0
04/09/2026;03:04:00;1011,7;;;18,0;79;244;5,6;0,0
04/09/2026;03:09:00;1011,7;;;18,0;78;246;6,2;0,0
04/09/2026;03:14:00;1011,7;;;17,9;78;242;5,7;0,0
04/09/2026;03:19:00;1011,7;;;17,9;78;246;5,3;0,0
04/09/2026;03:24:00;1011,6;;;17,8;78;248;6,1;0,0
04/09/2026;03:29:00;1011,8;;;17,8;78;241;5,4;0,0
04/09/2026;03:34:00;1011,7;;;17,7;78;241;6,0;0,0
04/09/2026;03:39:00;1011,6;;;17,7;79;246;5,6;0,0
04/09/2026;03:44:00;1011,6;;;17,7;79;245;5,8;0,0
04/09/2026;03:49:00;1011,8;;;17,7;79;238;5,1;0,0
04/09/2026;03:54:00;1011,8;;;17,7;79;238;4,5;0,0
04/09/2026;03:59:00;1011,8;;;17,7;79;240;4,5;0,0
04/09/2026;04:04:00;1011,8;;;17,7;79;242;4,3;0,0
04/09/2026;04:09:00;1011,8;;;17,8;79;250;5,2;0,0
04/09/2026;04:14:00;1012,0;;;17,8;79;245;5,5;0,0
04/09/2026;04:19:00;1012,1;;;17,8;79;244;6,2;0,0
04/09/2026;04:24:00;1012,1;;;17,9;79;234;5,6;0,0
04/09/2026;04:29:00;1012,1;;;17,9;79;241;5,0;0,0
04/09/2026;04:34:00;1012,2;;;17,9;79;243;5,4;0,0
04/09/2026;04:39:00;1012,3;;;17,9;79;248;5,1;0,0
04/09/2026;04:44:00;1012,5;;;17,9;78;239;6,3;0,0
04/09/2026;04:49:00;1012,6;;;17,9;78;249;4,7;0,0
04/09/2026;04:54:00;1012,6;;;17,8;78;250;5,1;0,0
04/09/2026;04:59:00;1012,7;;;17,7;78;242;5,4;0,0
04/09/2026;05:04:00;1012,8;;;17,7;78;244;4,8;0,0
04/09/2026;05:09:00;1012,9;;;17,6;78;241;5,1;0,0
04/09/2026;05:14:00;1012,9;;;17,6;78;246;5,2;0,0
04/09/2026;05:19:00;1013,0;;;17,5;78;243;5,0;0,0
04/09/2026;05:24:00;1013,1;;;17,5;78;246;4,8;0,0
04/09/2026;05:29:00;1013,1;;;17,4;78;245;4,2;0,0
04/09/2026;05:34:00;1013,2;;;17,4;78;245;4,2;0,0
04/09/2026;05:39:00;1013,2;;;17,3;78;242;3,9;0,0
04/09/2026;05:44:00;1013,3;;;17,3;78;244;4,7;0,0
04/09/2026;05:49:00;1013,5;;;17,2;78;235;4,8;0,0
04/09/2026;05:54:00;1013,6;;;17,2;79;235;4,0;0,0
04/09/2026;05:59:00;1013,7;;;17,2;79;235;3,9;0,0
04/09/2026;06:04:00;1013,8;;;17,2;79;246;4,7;0,0
04/09/2026;06:09:00;1013,8;;;17,2;79;247;4,3;0,0
04/09/2026;06:14:00;1013,8;;;17,1;79;251;4,3;0,0
04/09/2026;06:19:00;1013,9;;;17,1;79;242;4,8;0,0
04/09/2026;06:24:00;1013,9;;;17,1;79;239;3,8;0,0
04/09/2026;06:29:00;1014,0;;;17,1;79;236;4,3;0,0
04/09/2026;06:34:00;1013,9;;;17,1;79;239;3,8;0,0
04/09/2026;06:39:00;1013,9;;;17,1;79;239;4,1;0,0
04/09/2026;06:44:00;1014,0;;;17,1;79;249;4,1;0,0
04/09/2026;06:49:00;1014,0;;;17,2;79;239;3,6;0,0
04/09/2026;06:54:00;1014,0;;;17,2;79;239;2,8;0,0
04/09/2026;06:59:00;1014,1;;;17,2;79;230;3,7;0,0
04/09/2026;07:04:00;1014,3;;;17,2;79;238;3,1;0,0
04/09/2026;07:09:00;1014,4;;;17,2;79;233;3,6;0,0
04/09/2026;07:14:00;1014,5;;;17,2;79;236;3,6;0,0
04/09/2026;07:19:00;1014,5;;;17,3;79;238;3,3;0,0
04/09/2026;07:24:00;1014,6;;;17,3;79;237;3,7;0,0
04/09/2026;07:29:00;1014,7;;;17,3;79;230;3,9;0,0
04/09/2026;07:34:00;1014,6;;;17,3;78;231;3,7;0,0
04/09/2026;07:39:00;1014,6;;;17,4;79;248;4,4;0,0
04/09/2026;07:44:00;1014,8;;;17,4;79;235;4,8;0,0
04/09/2026;07:49:00;1014,8;;;17,4;79;232;5,1;0,0
04/09/2026;07:54:00;1014,9;;;17,5;79;231;4,5;0,0
04/09/2026;07:59:00;1014,9;;;17,5;78;227;4,6;0,0
04/09/2026;08:04:00;1014,9;;;17,5;78;226;4,1;0,0
04/09/2026;08:09:00;1015,0;;;17,5;78;234;4,5;0,0
04/09/2026;08:14:00;1015,1;;;17,5;79;232;5,1;0,0
04/09/2026;08:19:00;1015,1;;;17,6;79;234;5,4;0,0
04/09/2026;08:24:00;1015,1;;;17,6;79;227;5,1;0,0
04/09/2026;08:29:00;1015,3;;;17,6;78;230;4,7;0,0
04/09/2026;08:34:00;1015,5;;;17,6;78;228;5,3;0,0
04/09/2026;08:39:00;1015,6;;;17,6;78;225;5,2;0,0
04/09/2026;08:44:00;1015,7;;;17,6;78;224;5,4;0,0
04/09/2026;08:49:00;1015,8;;;17,6;78;228;5,6;0,0
04/09/2026;08:54:00;1015,8;;;17,6;78;235;4,3;0,0
04/09/2026;08:59:00;1015,9;;;17,5;78;237;4,0;0,0
04/09/2026;09:04:00;1016,1;;;17,5;78;234;4,7;0,0
04/09/2026;09:09:00;1016,0;;;17,6;79;227;3,7;0,0
04/09/2026;09:14:00;1016,0;;;17,6;79;232;3,9;0,0
04/09/2026;09:19:00;1015,9;;;17,6;79;229;4,5;0,0
04/09/2026;09:24:00;1015,8;;;17,7;80;231;3,7;0,0
04/09/2026;09:29:00;1015,9;;;17,9;80;223;3,9;0,0
04/09/2026;09:34:00;1015,9;;;18,0;80;229;3,8;0,0
04/09/2026;09:39:00;1016,0;;;18,1;80;237;4,6;0,0
04/09/2026;09:44:00;1016,0;;;18,3;80;229;4,4;0,0
04/09/2026;09:49:00;1016,0;;;18,4;80;224;4,8;0,0
04/09/2026;09:54:00;1015,8;;;18,6;80;235;5,7;0,0
04/09/2026;09:59:00;1015,7;;;18,8;79;229;5,9;0,0
04/09/2026;10:04:00;1015,9;;;18,9;79;230;5,6;0,0
04/09/2026;10:09:00;1015,9;;;19,1;79;228;4,9;0,0
04/09/2026;10:14:00;1016,0;;;19,2;79;228;4,7;0,0
04/09/2026;10:19:00;1015,9;;;19,3;79;224;4,7;0,0
04/09/2026;10:24:00;1015,8;;;19,4;78;233;5,0;0,0
04/09/2026;10:29:00;1015,6;;;19,5;78;238;5,4;0,0
04/09/2026;10:34:00;1015,5;;;19,6;78;242;6,1;0,0
04/09/2026;10:39:00;1015,5;;;19,6;78;237;5,9;0,0
04/09/2026;10:44:00;1015,3;;;19,6;78;241;6,0;0,0
04/09/2026;10:49:00;1015,2;;;19,6;78;245;6,5;0,0
04/09/2026;10:54:00;1015,2;;;19,6;78;242;6,3;0,0
04/09/2026;10:59:00;1015,2;;;19,6;78;241;5,7;0,0
04/09/2026;11:04:00;1015,1;;;19,6;78;241;6,3;0,0
04/09/2026;11:09:00;1015,2;;;19,6;78;244;6,1;0,0
04/09/2026;11:14:00;1015,1;;;19,6;78;244;6,2;0,0
04/09/2026;11:19:00;1014,8;;;19,7;78;247;6,5;0,0
04/09/2026;11:24:00;1014,7;;;19,7;78;246;6,7;0,0
04/09/2026;11:29:00;1014,6;;;19,8;78;250;6,2;0,0
04/09/2026;11:34:00;1014,5;;;19,8;78;246;6,3;0,0
04/09/2026;11:39:00;1014,5;;;19,8;78;249;6,4;0,0
04/09/2026;11:44:00;1014,5;;;19,8;78;246;6,1;0,0
04/09/2026;11:49:00;1014,5;;;19,8;77;247;5,8;0,0
04/09/2026;11:54:00;1014,6;;;19,8;77;246;5,7;0,0
04/09/2026;11:59:00;1014,6;;;19,8;77;246;5,1;0,0
04/09/2026;12:04:00;1014,7;;;19,8;77;246;6,0;0,0
04/09/2026;12:09:00;1014,6;;;19,7;77;246;6,2;0,0
04/09/2026;12:14:00;1014,4;;;19,6;77;244;5,9;0,0
04/09/2026;12:19:00;1014,5;;;19,6;78;247;6,0;0,0
04/09/2026;12:24:00;1014,5;;;19,6;78;247;6,2;0,0
04/09/2026;12:29:00;1014,4;;;19,5;78;247;7,0;0,0
04/09/2026;12:34:00;1014,5;;;19,5;78;245;6,0;0,0
04/09/2026;12:39:00;1014,6;;;19,5;78;244;6,1;0,0
04/09/2026;12:44:00;1014,5;;;19,6;78;245;6,4;0,0
04/09/2026;12:49:00;1014,5;;;19,6;78;242;6,4;0,0
04/09/2026;12:54:00;1014,6;;;19,6;78;245;6,0;0,0
04/09/2026;12:59:00;1014,7;;;19,7;78;242;6,0;0,0
04/09/2026;13:04:00;1014,7;;;19,7;78;242;5,1;0,0
04/09/2026;13:09:00;1014,5;;;19,7;78;242;5,7;0,0
04/09/2026;13:14:00;1014,2;;;19,8;78;250;5,5;0,0
04/09/2026;13:19:00;1014,0;;;19,7;77;244;5,2;0,0
04/09/2026;13:24:00;1014,0;;;19,7;77;249;5,0;0,0
04/09/2026;13:29:00;1013,9;;;19,7;77;248;5,6;0,0
04/09/2026;13:34:00;1014,0;;;19,7;77;249;5,4;0,0
04/09/2026;13:39:00;1013,9;;;19,7;77;246;5,1;0,0
04/09/2026;13:44:00;1013,8;;;19,6;77;251;4,6;0,0
04/09/2026;13:49:00;1014,1;;;19,6;77;247;4,4;0,0
04/09/2026;13:54:00;1014,0;;;19,5;77;249;4,0;0,0
04/09/2026;13:59:00;1013,8;;;19,5;77;246;5,1;0,0
04/09/2026;14:04:00;1013,8;;;19,5;78;248;5,2;0,0
04/09/2026;14:09:00;1013,7;;;19,5;78;244;4,6;0,0
04/09/2026;14:14:00;1013,5;;;19,6;78;248;4,9;0,0
04/09/2026;14:19:00;1013,6;;;19,6;78;247;5,1;0,0
04/09/2026;14:24:00;1013,6;;;19,6;77;246;4,9;0,0
04/09/2026;14:29:00;1013,5;;;19,6;77;249;5,0;0,0
04/09/2026;14:34:00;1013,5;;;19,6;77;246;5,2;0,0
04/09/2026;14:39:00;1013,7;;;19,6;77;250;5,1;0,0
04/09/2026;14:44:00;1013,9;;;19,5;77;247;4,8;0,0
04/09/2026;14:49:00;1013,8;;;19,5;77;248;4,6;0,0
04/09/2026;14:54:00;1013,7;;;19,4;77;245;5,3;0,0
04/09/2026;14:59:00;1013,8;;;19,4;77;246;5,1;0,0
04/09/2026;15:04:00;1013,7;;;19,4;77;249;4,5;0,0
04/09/2026;15:09:00;1013,6;;;19,3;77;248;4,1;0,0
04/09/2026;15:14:00;1013,6;;;19,3;77;251;4,9;0,0
04/09/2026;15:19:00;1013,6;;;19,2;77;251;4,5;0,0
04/09/2026;15:24:00;1013,8;;;19,1;77;248;4,9;0,0
04/09/2026;15:29:00;1013,8;;;19,0;77;246;4,1;0,0
04/09/2026;15:34:00;1013,8;;;18,9;77;248;3,9;0,0
04/09/2026;15:39:00;1013,8;;;18,8;77;247;4,2;0,0
04/09/2026;15:44:00;1013,8;;;18,8;77;246;4,3;0,0
04/09/2026;15:49:00;1013,8;;;18,7;77;245;4,6;0,0
04/09/2026;15:54:00;1013,8;;;18,7;77;246;4,4;0,0
04/09/2026;15:59:00;1014,2;;;18,6;77;243;4,4;0,0
04/09/2026;16:04:00;1014,2;;;18,6;77;244;4,0;0,0
04/09/2026;16:09:00;1014,0;;;18,5;77;247;4,0;0,0
04/09/2026;16:14:00;1014,1;;;18,5;77;245;4,0;0,0
04/09/2026;16:19:00;1014,1;;;18,5;77;242;3,9;0,0
04/09/2026;16:24:00;1014,0;;;18,5;77;243;3,4;0,0
04/09/2026;16:29:00;1014,0;;;18,5;77;244;4,0;0,0
04/09/2026;16:34:00;1014,2;;;18,5;77;239;4,3;0,0
04/09/2026;16:39:00;1014,3;;;18,5;77;238;3,9;0,0
04/09/2026;16:44:00;1014,3;;;18,5;77;239;3,9;0,0
04/09/2026;16:49:00;1014,6;;;18,6;77;236;3,7;0,0
04/09/2026;16:54:00;1014,7;;;18,5;77;230;3,6;0,0
04/09/2026;16:59:00;1014,7;;;18,5;76;223;3,5;0,0
04/09/2026;17:04:00;1014,7;;;18,5;76;227;3,3;0,0
04/09/2026;17:09:00;1014,8;;;18,4;76;230;3,0;0,0
04/09/2026;17:14:00;1014,8;;;18,3;76;241;2,9;0,0
04/09/2026;17:19:00;1014,9;;;18,3;76;240;2,9;0,0
04/09/2026;17:24:00;1014,8;;;18,2;76;241;3,3;0,0
04/09/2026;17:29:00;1014,7;;;18,2;76;244;2,7;0,0
04/09/2026;17:34:00;1014,6;;;18,1;76;245;2,2;0,0
04/09/2026;17:39:00;1014,5;;;18,1;76;232;1,7;0,0
04/09/2026;17:44:00;1014,6;;;18,1;76;250;2,5;0,0
04/09/2026;17:49:00;1014,7;;;18,0;76;241;2,4;0,0
04/09/2026;17:54:00;1014,7;;;18,0;76;248;1,7;0,0
04/09/2026;17:59:00;1014,7;;;17,9;76;244;1,9;0,0
04/09/2026;18:04:00;1015,0;;;17,9;76;232;3,2;0,0
04/09/2026;18:09:00;1015,1;;;17,8;76;233;3,1;0,0
04/09/2026;18:14:00;1015,1;;;17,8;76;242;3,2;0,0
04/09/2026;18:19:00;1015,2;;;17,7;76;235;2,5;0,0
04/09/2026;18:24:00;1015,3;;;17,7;76;230;3,2;0,0
04/09/2026;18:29:00;1015,2;;;17,7;76;228;3,4;0,0
04/09/2026;18:34:00;1015,0;;;17,7;76;228;3,0;0,0
04/09/2026;18:39:00;1015,0;;;17,7;76;238;3,1;0,0
04/09/2026;18:44:00;1014,9;;;17,7;76;237;2,8;0,0
04/09/2026;18:49:00;1014,9;;;17,6;76;238;2,5;0,0
04/09/2026;18:54:00;1015,0;;;17,6;76;242;2,1;0,0
04/09/2026;18:59:00;1015,3;;;17,6;76;223;2,2;0,0
04/09/2026;19:04:00;1015,3;;;17,6;76;229;2,2;0,0
04/09/2026;19:09:00;1015,4;;;17,6;76;220;2,1;0,0
04/09/2026;19:14:00;1015,4;;;17,6;76;221;2,5;0,0
04/09/2026;19:19:00;1015,5;;;17,6;76;223;2,7;0,0
04/09/2026;19:24:00;1015,6;;;17,5;76;225;2,3;0,0
04/09/2026;19:29:00;1015,5;;;17,5;76;231;2,5;0,0
04/09/2026;19:34:00;1015,6;;;17,5;76;225;2,4;0,0
04/09/2026;19:39:00;1015,7;;;17,5;76;227;2,1;0,0
04/09/2026;19:44:00;1015,8;;;17,5;76;231;1,4;0,0
04/09/2026;19:49:00;1015,8;;;17,5;76;247;1,1;0,0
04/09/2026;19:54:00;1015,8;;;17,5;76;227;1,2;0,0
04/09/2026;19:59:00;1015,8;;;17,5;76;248;1,4;0,0
04/09/2026;20:04:00;1015,8;;;17,4;76;246;1,3;0,0
04/09/2026;20:09:00;1015,8;;;17,4;76;233;1,5;0,0
04/09/2026;20:14:00;1015,9;;;17,4;76;229;1,3;0,0
04/09/2026;20:19:00;1015,8;;;17,4;76;242;1,2;0,0
04/09/2026;20:24:00;1015,7;;;17,4;76;192;1,0;0,0
04/09/2026;20:29:00;1015,7;;;17,3;76;195;1,0;0,0
04/09/2026;20:34:00;1015,8;;;17,3;76;214;1,1;0,0
04/09/2026;20:39:00;1015,8;;;17,2;76;214;1,1;0,0
04/09/2026;20:44:00;1015,8;;;17,2;76;205;1,0;0,0
04/09/2026;20:49:00;1015,9;;;17,2;76;226;0,9;0,0
04/09/2026;20:54:00;1016,0;;;17,2;76;237;1,6;0,0
04/09/2026;20:59:00;1016,0;;;17,1;76;222;1,6;0,0
04/09/2026;21:04:00;1016,2;;;17,1;76;230;1,8;0,0
04/09/2026;21:09:00;1016,2;;;17,1;76;227;1,6;0,0
04/09/2026;21:14:00;1016,0;;;17,1;76;214;1,3;0,0
04/09/2026;21:19:00;1016,0;;;17,1;76;215;1,1;0,0
04/09/2026;21:24:00;1016,0;;;17,1;76;218;0,8;0,0
04/09/2026;21:29:00;1015,9;;;17,1;76;182;0,9;0,0
04/09/2026;21:34:00;1016,1;;;17,1;76;217;1,0;0,0
04/09/2026;21:39:00;1016,2;;;17,1;76;225;1,4;0,0
04/09/2026;21:44:00;1016,0;;;17,1;76;180;1,0;0,0
04/09/2026;21:49:00;1015,9;;;17,1;76;188;0,8;0,0
04/09/2026;21:54:00;1016,2;;;17,0;76;197;0,9;0,0
04/09/2026;21:59:00;1016,2;;;17,0;76;197;1,2;0,0
04/09/2026;22:04:00;1016,3;;;17,0;76;216;1,2;0,0
04/09/2026;22:09:00;1016,3;;;17,0;76;201;1,2;0,0
04/09/2026;22:14:00;1016,3;;;17,0;76;196;1,1;0,0
04/09/2026;22:19:00;1016,4;;;16,9;76;205;1,1;0,0
04/09/2026;22:24:00;1016,4;;;16,9;76;221;1,3;0,0
04/09/2026;22:29:00;1016,4;;;16,9;76;202;1,0;0,0
04/09/2026;22:34:00;1016,3;;;16,9;76;181;0,7;0,0
04/09/2026;22:39:00;1016,2;;;16,9;76;175;0,9;0,0
04/09/2026;22:44:00;1016,2;;;16,9;76;240;1,2;0,0
04/09/2026;22:49:00;1016,5;;;16,9;76;260;1,5;0,0
04/09/2026;22:54:00;1016,5;;;16,9;76;250;1,0;0,0
04/09/2026;22:59:00;1016,7;;;16,9;76;259;1,8;0,0
04/09/2026;23:04:00;1016,6;;;16,9;76;258;1,2;0,0
04/09/2026;23:09:00;1016,6;;;17,0;76;279;1,2;0,0
04/09/2026;23:14:00;1016,7;;;17,0;76;283;1,9;0,0
04/09/2026;23:19:00;1016,6;;;17,0;76;260;1,4;0,0
04/09/2026;23:24:00;1016,4;;;16,9;75;242;1,4;0,0
04/09/2026;23:29:00;1016,4;;;16,9;75;264;0,9;0,0
04/09/2026;23:34:00;1016,7;;;16,9;76;247;1,4;0,0
04/09/2026;23:39:00;1016,5;;;16,9;75;267;1,2;0,0
04/09/2026;23:44:00;1016,5;;;16,9;76;240;0,9;0,0
04/09/2026;23:49:00;1016,4;;;16,9;75;213;1,1;0,0
04/09/2026;23:54:00;1016,5;;;16,8;75;239;1,4;0,0
04/09/2026;23:59:00;1016,5;;;16,8;76;246;1,4;0,0
